Location: Aghk�ilisa
(40.0189°N, 45.0097°E)
Time: 18:09:14
(UTC+00:00)

NOSS 3-3 (A) - Pass Details

Date: 21 October 2019
Orbit: 849 x 1363 km, 63.4° (Epoch: 12 November)

Event Time Altitude Azimuth Distance (km) Brightness Sun altitude
Rises 15:53:56 0° 326° (NNW) 4,009 7.7 -20.1°
Reaches altitude 10° 15:56:33 10° 328° (NNW) 3,114 7.1 -20.6°
Maximum altitude 16:04:11 77° 55° (NE) 1,312 4.5 -22.1°
Enters shadow 16:09:16 26° 138° (SE) 2,338 5.6 -23.1°
